Location: *
(51.0333°S, 178.4667°E)
Time: 06:47:47
(UTC+00:00)

Cosmos 1452 Rocket - Pass Details

Date: 15 November 2019
Orbit: 767 x 775 km, 74.1° (Epoch: 05 December)

Event Time Altitude Azimuth Distance (km) Brightness Sun altitude
Exits shadow 10:31:37 23° 337° (NNW) 1,604 4.8 -18.4°
Maximum altitude 10:35:00 89° 245° (WSW) 790 3.5 -18.5°
Drops below altitude 10° 10:40:22 10° 156° (SSE) 2,351 6.7 -18.8°
Sets 10:42:46 0° 155° (SSE) 3,283 7.5 -18.9°
